TimeEDT,TemperatureF,Dew PointF,Humidity,Sea Level PressureIn,VisibilityMPH,Wind Direction,Wind SpeedMPH,Gust SpeedMPH,PrecipitationIn,Events,Conditions,WindDirDegrees,DateUTC
12:54 AM,59.0,55.9,90,29.89,10.0,Calm,Calm,-,N/A,,Partly Cloudy,0,2013-09-26 04:54:00
1:54 AM,57.9,55.9,93,29.90,10.0,Calm,Calm,-,N/A,,Partly Cloudy,0,2013-09-26 05:54:00
2:54 AM,61.0,57.0,87,29.90,10.0,NNE,3.5,-,N/A,,Mostly Cloudy,20,2013-09-26 06:54:00
3:54 AM,61.0,57.0,87,29.89,10.0,Calm,Calm,-,N/A,,Clear,0,2013-09-26 07:54:00
4:54 AM,62.1,57.9,86,29.88,10.0,North,5.8,-,N/A,,Partly Cloudy,360,2013-09-26 08:54:00
5:54 AM,61.0,57.0,87,29.88,10.0,Calm,Calm,-,N/A,,Partly Cloudy,0,2013-09-26 09:54:00
6:54 AM,64.0,60.1,87,29.90,10.0,North,4.6,-,N/A,,Scattered Clouds,360,2013-09-26 10:54:00
7:54 AM,63.0,59.0,87,29.91,10.0,NNE,4.6,-,0.00,,Scattered Clouds,30,2013-09-26 11:54:00
8:54 AM,64.9,60.1,84,29.92,10.0,North,9.2,-,N/A,,Clear,360,2013-09-26 12:54:00
9:54 AM,70.0,60.1,71,29.94,10.0,NNE,8.1,-,N/A,,Clear,20,2013-09-26 13:54:00
10:54 AM,72.0,57.9,61,29.94,10.0,NNE,9.2,-,N/A,,Scattered Clouds,30,2013-09-26 14:54:00
11:54 AM,73.9,57.9,57,29.95,10.0,NE,12.7,-,N/A,,Scattered Clouds,40,2013-09-26 15:54:00
12:54 PM,75.9,57.9,54,29.94,10.0,NE,11.5,-,N/A,,Clear,40,2013-09-26 16:54:00
1:54 PM,75.9,57.9,54,29.93,10.0,NNE,13.8,-,N/A,,Partly Cloudy,30,2013-09-26 17:54:00
2:54 PM,75.9,57.9,54,29.93,10.0,NE,17.3,-,N/A,,Clear,50,2013-09-26 18:54:00
3:54 PM,73.0,59.0,61,29.94,10.0,NNE,13.8,-,N/A,,Mostly Cloudy,30,2013-09-26 19:54:00
4:54 PM,73.0,60.1,64,29.93,10.0,NNE,17.3,-,N/A,,Mostly Cloudy,20,2013-09-26 20:54:00
5:54 PM,71.1,60.1,68,29.96,10.0,NE,18.4,-,N/A,,Mostly Cloudy,40,2013-09-26 21:54:00
6:54 PM,69.1,59.0,70,29.98,10.0,NE,15.0,21.9,N/A,,Partly Cloudy,40,2013-09-26 22:54:00
7:54 PM,68.0,59.0,73,29.99,10.0,NNE,9.2,-,N/A,,Clear,30,2013-09-26 23:54:00
8:54 PM,66.0,59.0,78,30.01,10.0,North,6.9,-,N/A,,Clear,10,2013-09-27 00:54:00
9:54 PM,64.9,59.0,81,30.01,10.0,NNE,5.8,-,N/A,,Clear,20,2013-09-27 01:54:00
10:54 PM,64.9,60.1,84,30.02,10.0,NNW,9.2,-,N/A,,Partly Cloudy,340,2013-09-27 02:54:00
11:54 PM,64.0,60.1,87,30.02,10.0,North,9.2,-,N/A,,Clear,360,2013-09-27 03:54:00